DMSP 5D-2 F13 DEB, 40509

Orbit data source: Space-Track

DMSP 5D-2 F13 DEB, 40509 is space debris in SSO originally from a launch on Fri, 24 Mar 1995 UTC launched from the Air Force Western Test Range (AFWTR). Debris objects in space refer to the collection of defunct objects orbiting the Earth. Examples of debris include non-operational satellites, rocket bodies, and fragments generated from explosions, collisions, or faulty payload assembly.

Loading next visibility...
Identifier
40509, 1995-015CV
Orbit
SSO
Country
Flag of USUS
Related business
Manufacturer
Unknown
Mission
Spacecraft
Bus & Motor
Unknown
Mass
Unknown
Launch date (UTC)
1995-03-24 (31 years ago)
Launch vehicle
Unknown
Launch site
Air Force Western Test Range (AFWTR)
Object type
Payload
Rocket body
Debris
Shape & HBR
Unknown shape, 0.1 m
Radar Cross Section
Medium (>0.1 m² and <1 m²)

Expand to show TLE details & history
Last TLE update: 3 days ago

TLE from 3 days ago
0 DMSP 5D-2 F13 DEB
1 40509U 95015CV  26170.48255839  .00000252  00000-0  13121-3 0  9998
2 40509  98.6454 186.6617 0022464 332.3329  27.6653 14.22891995582974
Epoch: 2026-06-19T11:34Z
TLE epoch observation values (Epoch: 2026-06-19T11:34:53.044Z)
Latitude
Longitude
105.22979°
Altitude
804.202 km
Speed
7.459 km/s
True Right ascension
12h 26m 38s
True Declination
0° 00' 00"
Sunlit
Object was in daylight at epoch
Visualization orbit readout
Latitude
Unknown
Longitude
Unknown
Altitude
Unknown
Speed
Unknown
Apparent Right ascension
Unknown
Apparent Declination
Unknown
Sunlit
N/A
Visualization observer readout
Local Sidereal Time
19:28:29
Azimuth
Unknown
Elevation
Unknown
Doppler factor
Unknown
Orbital elements
Apogee altitude
828.894 km
Perigee altitude
796.587 km
Semi-major axis
7,190.878 km
Eccentricity
0.00225
Inclination
98.6454°
RAAN
186.6617°
Arg. of periapsis
332.3329°
True anomaly
27.78512°
Mean anomaly
27.6653°
Eccentric anomaly
27.72518°
Mean motion
3.55935 °/min
Orbital period
101.14 mins
BSTAR
0.00013121

Documentation

Showing up to 5 results
|